Flag for Laos Weather past 2 weeks in Vientiane, Laos

Now
79 °F

Fog.


Feels Like: 82 °F
Forecast: 74 / 90 °F
Wind: 2 mph from South

Location: Vientiane Airport

Current Time: Sep 18, 2014 at 7:18:45 AM

Latest Report: Sep 18, 2014 at 7:00 AM


Visibility: 3 mi

Pressure: 29.77 "Hg

Humidity: 89%

Dew point: 75 °F

Location of VientianeLocation

Historic Weather in Vientiane — Graph

°F

Vientiane temperature yesterday

Maximum temperature yesterday: 88 °F (at 3:00 PM)
Minimum temperature yesterday: 79 °F (at 6:00 AM)
Average temperature yesterday: 84 °F

Past Weeks' High & Low Weather Summary

 TemperatureHumidityPressure
High95 °F (Sep 10, 3:00 PM)100% (Sep 5, 9:00 AM)29.86 "Hg (Sep 5, 9:00 AM)
Low75 °F (Sep 4, 7:00 AM)50% (Sep 10, 3:00 PM)29.39 "Hg (Sep 16, 4:00 PM)
Average85 °F78%29.68 "Hg
* Reported Sep 3 6:00 AM — Sep 17 10:00 PM, Vientiane, Weather by CustomWeather, © 2014

Note: Actual official high and low records may vary slightly from our data, if they occured in-between our weather recording intervals... More about our weather records

Advertising

Vientiane weather history for previous 24 hours

 ConditionsComfort  
Time TempWeatherWind HumidityBarometerVisibility
10:00 PM
Sep 17
82 °FThunderstorms. Passing clouds.5 mph84%29.68 "Hg2 mi
9:30 PM82 °FFog.2 mph89%29.68 "Hg2 mi
9:00 PM82 °FFog.2 mph89%29.68 "Hg2 mi
8:30 PM84 °FFog.2 mph84%29.62 "Hg2 mi
8:00 PM84 °FFog.2 mph84%29.62 "Hg2 mi
7:30 PM84 °FFog.2 mph84%29.59 "Hg3 mi
7:00 PM84 °FFog.2 mph84%29.59 "Hg3 mi
6:00 PM86 °FBroken clouds.2 mph79%29.53 "Hg4 mi
5:30 PM86 °FBroken clouds.2 mph79%29.56 "Hg4 mi
5:00 PM86 °FBroken clouds.2 mph79%29.56 "Hg4 mi
4:00 PM88 °FBroken clouds.5 mph75%29.53 "Hg4 mi
3:00 PM88 °FBroken clouds.5 mph75%29.53 "Hg4 mi
2:30 PM86 °FBroken clouds.2 mph75%29.56 "Hg4 mi
2:00 PM86 °FBroken clouds.2 mph75%29.56 "Hg4 mi
1:30 PM86 °FBroken clouds.2 mph75%29.56 "Hg4 mi
1:00 PM86 °FBroken clouds.2 mph75%29.56 "Hg4 mi
12:30 PM84 °FBroken clouds.2 mph79%29.56 "Hg4 mi
12:00 PM84 °FBroken clouds.2 mph79%29.56 "Hg4 mi
11:00 AM84 °FBroken clouds.2 mph79%29.59 "Hg4 mi
10:30 AM82 °FBroken clouds.2 mph84%29.56 "Hg4 mi
10:00 AM82 °FBroken clouds.2 mph84%29.56 "Hg4 mi
9:30 AM82 °FFog.2 mph79%29.53 "Hg3 mi
9:00 AM82 °FFog.2 mph79%29.53 "Hg3 mi
8:30 AM81 °FFog.5 mph84%29.50 "Hg3 mi
8:00 AM81 °FFog.5 mph84%29.50 "Hg3 mi
7:00 AM79 °FFog.5 mph89%29.47 "Hg3 mi
Weather by CustomWeather, © 2014

See weather overviewHow to use our weather pages